Location: Hall+in+Tirol
(47.2830°N, 11.5170°E)
Time: 09:22:08
(UTC+01:00)

Amateur Radio Satellites - All Passes

Search period start: 01 November 2014 08:52
Search period end: 02 November 2014 08:52
Location: Hall+in+Tirol, 47.2830°N, 11.5170°E

Satellite Date Start Highest point End Downlink Frequencies (MHz)
Time Altitude Azimuth
Sapphire 01 Nov 08:55:15 08:59:24 22° 35° (NE) 09:03:32 437.095 MHz 1200 baud AX-25 AFSK
JAS-2 01 Nov 08:57:33 08:59:20 11° 320° (NW) 09:01:08 435.800 - 435.900 CW/SSB, 435.910 FM
Oscar 11 01 Nov 09:16:38 09:20:11 25° 94° (E) 09:23:44 145.825 FM, Beacon 2401.500 USB
PCSat 01 Nov 09:16:40 09:21:24 29° 41° (NE) 09:26:05 145.825 MHz
SO-50 01 Nov 09:31:21 09:33:35 14° 109° (ESE) 09:35:51 436.795 FM
FUNcube-1 01 Nov 09:35:33 09:38:16 17° 90° (E) 09:40:57 145.950 - 145.970 MHz USB
ISS 01 Nov 10:16:30 10:19:47 63° 150° (SSE) 10:23:05 145.800 FM
UKube-1 01 Nov 10:17:45 10:22:09 82° 286° (WNW) 10:26:30 145.840 MHz, 145.915 MHz
KITSAT 1 01 Nov 10:24:32 10:32:28 64° 118° (ESE) 10:40:26 435.175 FM
ZACube-1 01 Nov 10:28:04 10:32:14 58° 101° (E) 10:36:20 437.345 MHz
HO-68 01 Nov 10:35:46 10:42:31 45° 298° (WNW) 10:49:13 435.675 MHz FM
Sapphire 01 Nov 10:38:08 10:43:37 87° 57° (ENE) 10:49:03 437.095 MHz 1200 baud AX-25 AFSK
Oscar 11 01 Nov 10:52:30 10:56:28 36° 292° (WNW) 11:00:24 145.825 FM, Beacon 2401.500 USB
PCSat 01 Nov 10:59:50 11:05:12 61° 242° (WSW) 11:10:31 145.825 MHz
SO-50 01 Nov 11:08:54 11:13:26 86° 308° (NW) 11:18:08 436.795 FM
FUNcube-1 01 Nov 11:10:53 11:14:58 50° 289° (WNW) 11:18:59 145.950 - 145.970 MHz USB
Oscar 16 01 Nov 11:19:36 11:22:50 17° 57° (ENE) 11:26:04 437.025 USB, Beacon 2401.1428
AO-Echo 01 Nov 11:48:54 11:52:00 16° 56° (ENE) 11:55:09 ?
UOSAT-12 01 Nov 11:49:25 11:53:26 29° 116° (ESE) 11:57:31 437.025 FM, 437.400 FM
ISS 01 Nov 11:53:24 11:56:36 42° 350° (N) 11:59:49 145.800 FM
Uribyol 2 01 Nov 11:54:03 11:57:09 16° 56° (NE) 12:00:15 436.500 FM
UKube-1 01 Nov 11:56:19 11:57:35 11° 304° (NW) 11:58:52 145.840 MHz, 145.915 MHz
ITAMSAT 1 01 Nov 12:01:53 12:05:15 18° 57° (ENE) 12:08:37 435.822 SSB
ZACube-1 01 Nov 12:05:37 12:08:12 16° 299° (WNW) 12:10:46 437.345 MHz
Oscar 19 01 Nov 12:09:39 12:14:26 41° 67° (ENE) 12:19:13 437.125 CW, 437.150 USB
Saudisat 1A 01 Nov 12:15:20 12:19:00 25° 37° (NE) 12:22:39 436.775 MHz
KITSAT 1 01 Nov 12:20:46 12:28:20 42° 321° (NW) 12:35:56 435.175 FM
Sapphire 01 Nov 12:23:08 12:26:17 16° 256° (WSW) 12:29:26 437.095 MHz 1200 baud AX-25 AFSK
JAS-1B 01 Nov 12:26:14 12:31:44 54° 68° (ENE) 12:37:24 435.800 - 435.900 CW/SSB
HO-68 01 Nov 12:26:17 12:28:27 12° 320° (NW) 12:30:37 435.675 MHz FM
AO-7 01 Nov 12:28:07 12:31:15 13° 33° (NNE) 12:34:22 29.400 - 29.500 MHz
AO-27 01 Nov 12:47:50 12:52:40 40° 66° (ENE) 12:57:32 436.795 MHz FM
SO-50 01 Nov 12:51:17 12:54:42 20° 329° (NNW) 12:58:11 436.795 FM
Oscar 16 01 Nov 12:56:25 13:01:34 81° 256° (WSW) 13:06:45 437.025 USB, Beacon 2401.1428
Oscar 10/S400 01 Nov 13:07:23 13:23:29 33° 153° (SSE) 13:46:45 145.825 - 145.975 CW/USB, Beacon 145.810 USB
Gurwin Techsat 1B 01 Nov 13:07:53 13:12:35 33° 64° (ENE) 13:17:18 435.225 FM
TMSAT-1 01 Nov 13:14:00 13:18:29 29° 63° (ENE) 13:22:59 436.925 FM
AO-Echo 01 Nov 13:25:01 13:30:03 85° 256° (WSW) 13:35:18 ?
UOSAT-12 01 Nov 13:28:55 13:33:25 45° 315° (NW) 13:38:00 437.025 FM, 437.400 FM
ISS 01 Nov 13:30:32 13:33:44 42° 10° (N) 13:36:56 145.800 FM
Uribyol 2 01 Nov 13:30:41 13:35:55 89° 254° (WSW) 13:41:12 436.500 FM
ITAMSAT 1 01 Nov 13:38:53 13:44:06 81° 256° (WSW) 13:49:23 435.822 SSB
Oscar 19 01 Nov 13:49:25 13:53:53 30° 265° (W) 13:58:22 437.125 CW, 437.150 USB
Saudisat 1A 01 Nov 13:54:32 13:58:55 62° 237° (WSW) 14:03:16 436.775 MHz
AO-7 01 Nov 14:14:17 14:21:50 41° 57° (ENE) 14:29:24 29.400 - 29.500 MHz
JAS-1B 01 Nov 14:18:30 14:22:56 23° 269° (W) 14:27:26 435.800 - 435.900 CW/SSB
KITSAT 1 01 Nov 14:20:20 14:26:13 21° 349° (N) 14:32:06 435.175 FM
AO-27 01 Nov 14:27:38 14:32:15 31° 265° (W) 14:36:55 436.795 MHz FM
Oscar 16 01 Nov 14:40:16 14:41:45 11° 274° (W) 14:43:14 437.025 USB, Beacon 2401.1428
Gurwin Techsat 1B 01 Nov 14:47:31 14:52:28 39° 263° (W) 14:57:27 435.225 FM
TMSAT-1 01 Nov 14:53:07 14:58:12 46° 261° (W) 15:03:19 436.925 FM
ISS 01 Nov 15:07:15 15:10:34 67° 209° (SSW) 15:13:53 145.800 FM
AO-Echo 01 Nov 15:07:49 15:09:40 12° 275° (W) 15:11:32 ?
UOSAT-12 01 Nov 15:12:11 15:14:45 14° 338° (NNW) 15:17:19 437.025 FM, 437.400 FM
Uribyol 2 01 Nov 15:13:48 15:16:09 13° 273° (W) 15:18:30 436.500 FM
Uosat F 01 Nov 15:17:23 15:22:16 53° 69° (ENE) 15:27:12 435.120 FM
ITAMSAT 1 01 Nov 15:22:43 15:24:26 12° 274° (W) 15:26:09 435.822 SSB
JAS-2 01 Nov 15:39:29 15:45:18 34° 60° (ENE) 15:51:44 435.800 - 435.900 CW/SSB, 435.910 FM
Hamsat 01 Nov 15:54:58 15:57:39 17° 62° (ENE) 16:00:21 145.90 MHz
AO-7 01 Nov 16:06:21 16:14:25 56° 258° (WSW) 16:22:33 29.400 - 29.500 MHz
SO-50 01 Nov 16:17:40 16:19:52 13° 19° (NNE) 16:22:05 436.795 FM
KITSAT 1 01 Nov 16:18:34 16:24:53 24° 19° (NNE) 16:31:11 435.175 FM
ISS 01 Nov 16:45:19 16:46:44 12° 226° (SW) 16:48:09 145.800 FM
Uosat F 01 Nov 16:57:30 17:01:22 22° 268° (W) 17:05:16 435.120 FM
JAS-2 01 Nov 17:23:42 17:29:59 55° 262° (W) 17:37:08 435.800 - 435.900 CW/SSB, 435.910 FM
OPAL 01 Nov 17:25:11 17:29:57 46° 102° (ESE) 17:34:41 ?
Hamsat 01 Nov 17:29:07 17:33:13 55° 260° (W) 17:37:20 145.90 MHz
HO-68 01 Nov 17:38:07 17:40:28 12° 40° (NE) 17:42:50 435.675 MHz FM
SO-67 01 Nov 17:39:04 17:41:50 23° 68° (ENE) 17:44:37 435.3500 MHz FM
STRAND 1 01 Nov 17:46:04 17:48:18 13° 87° (E) 17:50:33 ?
SO-50 01 Nov 17:57:18 18:01:47 37° 42° (NE) 18:06:18 436.795 FM
AO-7 01 Nov 18:08:06 18:09:08 10° 279° (W) 18:10:10 29.400 - 29.500 MHz
KITSAT 1 01 Nov 18:14:17 18:22:14 56° 46° (NE) 18:30:08 435.175 FM
UOSAT-12 01 Nov 18:36:00 18:39:08 17° 27° (NNE) 18:42:15 437.025 FM, 437.400 FM
AO-40 01 Nov 18:48:08 22:26:51 27° 133° (SE) 23:53:43 Beacon 2401.320
OPAL 01 Nov 19:04:31 19:08:37 27° 300° (WNW) 19:12:43 ?
SO-67 01 Nov 19:11:51 19:14:43 25° 265° (W) 19:17:37 435.3500 MHz FM
HO-68 01 Nov 19:19:43 19:26:27 46° 62° (ENE) 19:33:13 435.675 MHz FM
STRAND 1 01 Nov 19:23:03 19:28:15 89° 105° (ESE) 19:33:23 ?
SO-50 01 Nov 19:37:52 19:42:25 41° 241° (WSW) 19:46:59 436.795 FM
UKube-1 01 Nov 19:41:52 19:44:37 17° 60° (ENE) 19:47:23 145.840 MHz, 145.915 MHz
RS-15 01 Nov 19:52:52 20:02:54 44° 111° (ESE) 20:12:54 29.354 - 29.394 USB, Beacon 29.352 USB
KITSAT 1 01 Nov 20:10:01 20:17:29 43° 248° (WSW) 20:24:57 435.175 FM
Oscar 11 01 Nov 20:14:40 20:18:24 29° 67° (ENE) 20:22:08 145.825 FM, Beacon 2401.500 USB
UOSAT-12 01 Nov 20:15:29 20:20:12 64° 49° (NE) 20:24:50 437.025 FM, 437.400 FM
FUNcube-1 01 Nov 20:34:38 20:38:06 23° 64° (ENE) 20:41:32 145.950 - 145.970 MHz USB
STRAND 1 01 Nov 21:03:45 21:06:43 16° 304° (NW) 21:09:41 ?
HO-68 01 Nov 21:07:30 21:14:12 42° 262° (W) 21:20:59 435.675 MHz FM
UKube-1 01 Nov 21:16:01 21:20:21 63° 258° (WSW) 21:24:42 145.840 MHz, 145.915 MHz
ZACube-1 01 Nov 21:27:05 21:31:35 71° 74° (ENE) 21:35:59 437.345 MHz
MaSat-1 01 Nov 21:30:04 21:33:48 60° 117° (ESE) 21:37:09 437.345 MHz
Oscar 11 01 Nov 21:50:42 21:54:32 31° 264° (W) 21:58:23 145.825 FM, Beacon 2401.500 USB
UOSAT-12 01 Nov 21:56:29 21:59:55 20° 248° (WSW) 22:03:18 437.025 FM, 437.400 FM
RS-15 01 Nov 22:03:55 22:14:47 66° 315° (NW) 22:25:46 29.354 - 29.394 USB, Beacon 29.352 USB
FUNcube-1 01 Nov 22:09:56 22:14:15 44° 261° (W) 22:18:29 145.950 - 145.970 MHz USB
ZACube-1 01 Nov 23:06:09 23:08:26 14° 271° (W) 23:10:42 437.345 MHz
MaSat-1 01 Nov 23:07:23 23:09:24 14° 312° (NW) 23:11:18 437.345 MHz
JAS-1B 02 Nov 00:06:28 00:10:16 14° 87° (E) 00:14:21 435.800 - 435.900 CW/SSB
RS-15 02 Nov 00:20:02 00:29:39 34° 346° (NNW) 00:39:28 29.354 - 29.394 USB, Beacon 29.352 USB
Oscar 19 02 Nov 00:20:47 00:21:45 11° 85° (E) 00:22:42 437.125 CW, 437.150 USB
AO-27 02 Nov 01:00:47 01:01:26 10° 85° (E) 01:02:05 436.795 MHz FM
Oscar 16 02 Nov 01:05:19 01:09:43 28° 94° (E) 01:14:06 437.025 USB, Beacon 2401.1428
Sapphire 02 Nov 01:23:08 01:28:11 42° 114° (ESE) 01:33:17 437.095 MHz 1200 baud AX-25 AFSK
AO-Echo 02 Nov 01:29:30 01:33:59 27° 93° (E) 01:38:24 ?
Uribyol 2 02 Nov 01:40:49 01:45:08 26° 93° (E) 01:49:25 436.500 FM
PCSat 02 Nov 01:44:16 01:49:37 66° 119° (ESE) 01:55:00 145.825 MHz
ITAMSAT 1 02 Nov 01:49:01 01:53:31 29° 94° (E) 01:57:59 435.822 SSB
JAS-1B 02 Nov 01:54:42 02:01:46 71° 104° (ESE) 02:10:15 435.800 - 435.900 CW/SSB
Oscar 19 02 Nov 01:56:48 02:01:57 77° 104° (ESE) 02:07:04 437.125 CW, 437.150 USB
RS-15 02 Nov 02:35:55 02:45:54 37° 21° (NNE) 02:56:10 29.354 - 29.394 USB, Beacon 29.352 USB
AO-27 02 Nov 02:36:36 02:41:52 74° 104° (ESE) 02:47:04 436.795 MHz FM
Oscar 16 02 Nov 02:44:24 02:49:13 42° 293° (WNW) 02:54:01 437.025 USB, Beacon 2401.1428
Gurwin Techsat 1B 02 Nov 02:59:57 03:05:17 67° 102° (ESE) 03:10:33 435.225 FM
TMSAT-1 02 Nov 03:05:25 03:10:39 56° 100° (E) 03:15:51 436.925 FM
OPAL 02 Nov 03:06:21 03:09:54 20° 56° (ENE) 03:13:27 ?
Sapphire 02 Nov 03:06:38 03:11:40 38° 314° (NW) 03:16:45 437.095 MHz 1200 baud AX-25 AFSK
AO-Echo 02 Nov 03:07:50 03:12:57 48° 291° (WNW) 03:18:00 ?
Uribyol 2 02 Nov 03:19:51 03:24:50 47° 292° (WNW) 03:29:47 436.500 FM
Uosat F 02 Nov 03:23:50 03:25:59 13° 87° (E) 03:28:07 435.120 FM
ITAMSAT 1 02 Nov 03:28:14 03:33:10 43° 293° (WNW) 03:38:03 435.822 SSB
PCSat 02 Nov 03:28:52 03:33:29 28° 320° (NW) 03:38:07 145.825 MHz
Oscar 19 02 Nov 03:37:23 03:40:42 18° 302° (WNW) 03:44:00 437.125 CW, 437.150 USB
JAS-1B 02 Nov 03:46:14 03:52:00 29° 300° (WNW) 03:58:38 435.800 - 435.900 CW/SSB
AO-7 02 Nov 04:04:00 04:11:53 44° 99° (E) 04:19:43 29.400 - 29.500 MHz
Saudisat 1A 02 Nov 04:05:22 04:08:00 16° 111° (ESE) 04:10:39 436.775 MHz
AO-27 02 Nov 04:17:14 04:20:49 19° 302° (WNW) 04:24:22 436.795 MHz FM
JAS-2 02 Nov 04:29:46 04:36:07 26° 88° (E) 04:42:17 435.800 - 435.900 CW/SSB, 435.910 FM
Gurwin Techsat 1B 02 Nov 04:40:52 04:44:46 21° 301° (WNW) 04:48:39 435.225 FM
OPAL 02 Nov 04:43:14 04:48:19 70° 255° (WSW) 04:53:21 ?
TMSAT-1 02 Nov 04:46:02 04:50:13 24° 299° (WNW) 04:54:23 436.925 FM
RS-15 02 Nov 04:49:03 05:00:13 79° 50° (NE) 05:11:51 29.354 - 29.394 USB, Beacon 29.352 USB
Sapphire 02 Nov 04:54:19 04:56:43 13° 338° (NNW) 04:59:07 437.095 MHz 1200 baud AX-25 AFSK
Uosat F 02 Nov 05:00:24 05:05:29 90° 106° (ESE) 05:10:32 435.120 FM
STRAND 1 02 Nov 05:04:10 05:08:26 27° 62° (ENE) 05:12:44 ?
Hamsat 02 Nov 05:12:00 05:15:12 21° 92° (E) 05:18:24 145.90 MHz
PCSat 02 Nov 05:17:41 05:18:52 11° 345° (NNW) 05:20:03 145.825 MHz
MaSat-1 02 Nov 05:36:46 05:38:26 16° 49° (NE) 05:40:02 437.345 MHz
Saudisat 1A 02 Nov 05:42:39 05:47:02 72° 309° (NW) 05:51:28 436.775 MHz
AO-7 02 Nov 05:56:51 06:04:48 51° 299° (WNW) 06:12:44 29.400 - 29.500 MHz
JAS-2 02 Nov 06:13:57 06:21:51 78° 288° (WNW) 06:29:30 435.800 - 435.900 CW/SSB, 435.910 FM
SO-67 02 Nov 06:31:57 06:34:20 17° 92° (E) 06:36:43 435.3500 MHz FM
Uosat F 02 Nov 06:40:45 06:43:34 15° 304° (NW) 06:46:22 435.120 FM
STRAND 1 02 Nov 06:42:27 06:47:24 47° 261° (W) 06:52:23 ?
Hamsat 02 Nov 06:47:21 06:51:20 41° 290° (WNW) 06:55:19 145.90 MHz
RS-15 02 Nov 07:02:06 07:11:40 35° 253° (WSW) 07:21:36 29.354 - 29.394 USB, Beacon 29.352 USB
MaSat-1 02 Nov 07:11:53 07:13:44 19° 250° (WSW) 07:15:31 437.345 MHz
Saudisat 1A 02 Nov 07:24:28 07:27:22 17° 331° (NNW) 07:30:17 436.775 MHz
AO-7 02 Nov 07:51:22 07:55:43 16° 323° (NW) 08:00:04 29.400 - 29.500 MHz
JAS-2 02 Nov 08:00:10 08:05:42 22° 308° (NW) 08:11:13 435.800 - 435.900 CW/SSB, 435.910 FM
SO-67 02 Nov 08:04:17 08:07:24 32° 290° (WNW) 08:10:30 435.3500 MHz FM
Sapphire 02 Nov 08:24:56 08:28:40 18° 31° (NNE) 08:32:22 437.095 MHz 1200 baud AX-25 AFSK
HO-68 02 Nov 08:31:17 08:37:44 34° 95° (E) 08:44:06 435.675 MHz FM
